This is the latest recevied weather packets stored in our database for station/object KA7EII-13. If no packets are shown the sender has not sent any weather packets the latest 10 day(s).
| Time | Temp. | Humidity | Pressure | Rain* | Wind** | Luminosity | Snow |
|---|---|---|---|---|---|---|---|
| 1777656721 | 15.56° C | 35% | 1111.7 hPa | 0 mm | - | 796 W/m² | - |
| 1777656417 | 15.56° C | 38% | 1111.4 hPa | 0 mm | - | 812 W/m² | - |
| 1777656112 | 15.56° C | 37% | 1111.8 hPa | 0 mm | - | 806 W/m² | - |
| 1777655808 | 15° C | 38% | 1111.6 hPa | 0 mm | - | 797 W/m² | - |
| 1777655505 | 15.56° C | 37% | 1111.8 hPa | 0 mm | - | 747 W/m² | - |
| 1777655202 | 15.56° C | 38% | 1111.7 hPa | 0 mm | - | 757 W/m² | - |
| 1777654899 | 14.44° C | 37% | 1111.8 hPa | 0 mm | - | 763 W/m² | - |
| 1777654596 | 15° C | 38% | 1111.6 hPa | 0 mm | - | 778 W/m² | - |
| 1777654293 | 15.56° C | 38% | 1112 hPa | 0 mm | - | 707 W/m² | - |
| 1777653992 | 15° C | 37% | 1111.7 hPa | 0 mm | - | 690 W/m² | - |
| 1777653688 | 15.56° C | 37% | 1111.8 hPa | 0 mm | - | 702 W/m² | - |
| 1777653379 | 15° C | 38% | 1112.1 hPa | 0 mm | - | 674 W/m² | - |
| 1777653076 | 14.44° C | 42% | 1111.8 hPa | 0 mm | - | 632 W/m² | - |
| 1777652772 | 13.89° C | 40% | 1111.8 hPa | 0 mm | - | 621 W/m² | - |
| 1777652469 | 13.89° C | 40% | 1112 hPa | 0 mm | - | 618 W/m² | - |
| 1777652167 | 14.44° C | 39% | 1112.1 hPa | 0 mm | - | 616 W/m² | - |
| 1777651863 | 13.33° C | 41% | 1111.8 hPa | 0 mm | - | 598 W/m² | - |
| 1777651560 | 13.33° C | 41% | 1112 hPa | 0 mm | - | 565 W/m² | - |
| 1777651256 | 13.33° C | 43% | 1112 hPa | 0 mm | - | 551 W/m² | - |
| 1777650953 | 13.33° C | 42% | 1112.1 hPa | 0 mm | - | 524 W/m² | - |
| 1777650650 | 12.78° C | 43% | 1111.8 hPa | 0 mm | - | 490 W/m² | - |
| 1777650347 | 12.78° C | 42% | 1112 hPa | 0 mm | - | 471 W/m² | - |
| 1777650044 | 11.67° C | 44% | 1112.1 hPa | 0 mm | - | 458 W/m² | - |
| 1777649742 | 12.22° C | 44% | 1112 hPa | 0 mm | - | 431 W/m² | - |
| 1777649438 | 11.67° C | 47% | 1112.1 hPa | 0 mm | - | 406 W/m² | - |
* Rain latest hour (hover to see other rain measurements)
** Current wind speed in m/s (hover to see current wind gust speed)